Time,TemperatureF,DewpointF,PressureIn,WindDirection,WindDirectionDegrees,WindSpeedMPH,WindSpeedGustMPH,Humidity,HourlyPrecipIn,Conditions,Clouds,dailyrainin,SoftwareType,DateUTC
2013-06-13 00:02:00,83.0,72.0,29.74,SW,220,5.0,10.0,69,0.00,,,0.00,,2013-06-13 05:02:00,
2013-06-13 00:12:00,83.0,72.0,29.74,SW,220,5.0,10.0,69,0.00,,,0.00,,2013-06-13 05:12:00,
2013-06-13 00:24:00,83.0,72.0,29.73,SW,227,6.0,11.0,70,0.00,,,0.00,,2013-06-13 05:24:00,
2013-06-13 00:33:00,83.0,73.0,29.72,WSW,237,7.0,12.0,71,0.00,,,0.00,,2013-06-13 05:33:00,
2013-06-13 00:43:00,83.0,73.0,29.72,WSW,237,7.0,12.0,71,0.00,,,0.00,,2013-06-13 05:43:00,
2013-06-13 00:53:00,83.0,72.0,29.72,SW,229,9.0,16.0,70,0.00,,,0.00,,2013-06-13 05:53:00,
2013-06-13 01:02:00,83.0,72.0,29.72,WSW,244,8.0,15.0,70,0.00,,,0.00,,2013-06-13 06:02:00,
2013-06-13 01:11:00,83.0,72.0,29.72,WSW,244,8.0,15.0,70,0.00,,,0.00,,2013-06-13 06:11:00,
2013-06-13 01:22:00,83.0,72.0,29.72,WSW,244,8.0,15.0,70,0.00,,,0.00,,2013-06-13 06:22:00,
2013-06-13 01:33:00,83.0,72.0,29.72,SSW,212,8.0,13.0,70,0.00,,,0.00,,2013-06-13 06:33:00,
2013-06-13 01:44:00,83.0,72.0,29.72,SSW,212,8.0,13.0,70,0.00,,,0.00,,2013-06-13 06:44:00,
2013-06-13 01:52:00,83.0,72.0,29.72,WSW,242,8.0,13.0,70,0.00,,,0.00,,2013-06-13 06:52:00,
2013-06-13 02:01:00,82.0,72.0,29.71,SW,218,8.0,14.0,71,0.00,,,0.00,,2013-06-13 07:01:00,
2013-06-13 02:11:00,82.0,72.0,29.71,SW,218,8.0,14.0,71,0.00,,,0.00,,2013-06-13 07:11:00,
2013-06-13 02:22:00,82.0,72.0,29.71,SW,218,8.0,14.0,71,0.00,,,0.00,,2013-06-13 07:22:00,
2013-06-13 02:33:00,82.0,72.0,29.71,SW,218,8.0,14.0,71,0.00,,,0.00,,2013-06-13 07:33:00,
2013-06-13 02:42:00,82.0,72.0,29.71,SW,218,8.0,14.0,71,0.00,,,0.00,,2013-06-13 07:42:00,
2013-06-13 02:52:00,82.0,72.0,29.70,WSW,246,7.0,13.0,71,0.00,,,0.00,,2013-06-13 07:52:00,
2013-06-13 03:01:00,81.0,71.0,29.70,SW,235,5.0,11.0,72,0.00,,,0.00,,2013-06-13 08:01:00,
2013-06-13 03:11:00,81.0,71.0,29.70,SW,235,5.0,11.0,72,0.00,,,0.00,,2013-06-13 08:11:00,
2013-06-13 03:22:00,81.0,71.0,29.70,WSW,238,7.0,12.0,72,0.00,,,0.00,,2013-06-13 08:22:00,
2013-06-13 03:32:00,81.0,72.0,29.70,WSW,248,7.0,13.0,73,0.00,,,0.00,,2013-06-13 08:32:00,
2013-06-13 03:43:00,81.0,72.0,29.70,WSW,248,7.0,13.0,73,0.00,,,0.00,,2013-06-13 08:43:00,
2013-06-13 03:52:00,81.0,72.0,29.70,WSW,250,6.0,11.0,73,0.00,,,0.00,,2013-06-13 08:52:00,
2013-06-13 04:02:00,81.0,72.0,29.70,WSW,250,6.0,11.0,73,0.00,,,0.00,,2013-06-13 09:02:00,
2013-06-13 04:12:00,81.0,72.0,29.70,WSW,250,6.0,11.0,73,0.00,,,0.00,,2013-06-13 09:12:00,
2013-06-13 04:22:00,80.0,71.0,29.70,WSW,247,5.0,12.0,75,0.00,,,0.00,,2013-06-13 09:22:00,
2013-06-13 04:32:00,80.0,71.0,29.70,WSW,247,5.0,12.0,75,0.00,,,0.00,,2013-06-13 09:32:00,
2013-06-13 04:42:00,80.0,71.0,29.70,WSW,247,5.0,12.0,75,0.00,,,0.00,,2013-06-13 09:42:00,
2013-06-13 04:52:00,79.0,71.0,29.71,SW,233,4.0,8.0,77,0.00,,,0.00,,2013-06-13 09:52:00,
2013-06-13 05:01:00,79.0,71.0,29.70,WSW,242,3.0,10.0,77,0.00,,,0.00,,2013-06-13 10:01:00,
2013-06-13 05:11:00,79.0,71.0,29.70,WSW,242,3.0,10.0,77,0.00,,,0.00,,2013-06-13 10:11:00,
2013-06-13 05:22:00,79.0,71.0,29.70,WSW,242,3.0,10.0,77,0.00,,,0.00,,2013-06-13 10:22:00,
2013-06-13 05:33:00,78.0,71.0,29.72,WNW,283,4.0,10.0,78,0.00,,,0.00,,2013-06-13 10:33:00,
2013-06-13 05:43:00,78.0,71.0,29.72,WNW,283,4.0,10.0,78,0.00,,,0.00,,2013-06-13 10:43:00,
2013-06-13 05:53:00,79.0,71.0,29.72,WNW,288,5.0,11.0,77,0.00,,,0.00,,2013-06-13 10:53:00,
2013-06-13 06:02:00,78.0,67.0,29.73,NW,322,4.0,15.0,70,0.00,,,0.00,,2013-06-13 11:02:00,
2013-06-13 06:11:00,78.0,67.0,29.73,NW,322,4.0,15.0,70,0.00,,,0.00,,2013-06-13 11:11:00,
2013-06-13 06:23:00,77.0,66.0,29.74,West,275,5.0,13.0,69,0.00,,,0.00,,2013-06-13 11:23:00,
2013-06-13 06:32:00,76.0,63.0,29.74,WNW,286,6.0,15.0,64,0.00,,,0.00,,2013-06-13 11:32:00,
2013-06-13 06:42:00,76.0,63.0,29.74,WNW,286,6.0,15.0,64,0.00,,,0.00,,2013-06-13 11:42:00,
2013-06-13 06:52:00,76.0,64.0,29.75,WNW,284,9.0,22.0,66,0.00,,,0.00,,2013-06-13 11:52:00,
2013-06-13 07:01:00,75.0,62.0,29.78,WNW,292,9.0,23.0,65,0.00,,,0.00,,2013-06-13 12:01:00,
2013-06-13 07:11:00,75.0,62.0,29.78,WNW,292,9.0,23.0,65,0.00,,,0.00,,2013-06-13 12:11:00,
2013-06-13 07:22:00,75.0,63.0,29.78,NW,311,5.0,14.0,66,0.00,,,0.00,,2013-06-13 12:22:00,
2013-06-13 07:35:00,75.0,63.0,29.78,NW,311,5.0,14.0,66,0.00,,,0.00,,2013-06-13 12:35:00,
2013-06-13 07:42:00,75.0,63.0,29.78,NW,311,5.0,14.0,66,0.00,,,0.00,,2013-06-13 12:42:00,
2013-06-13 07:52:00,75.0,63.0,29.78,NW,311,5.0,14.0,66,0.00,,,0.00,,2013-06-13 12:52:00,
2013-06-13 08:01:00,74.0,64.0,29.80,West,271,4.0,13.0,70,0.00,,,0.00,,2013-06-13 13:01:00,
2013-06-13 08:11:00,74.0,64.0,29.80,West,271,4.0,13.0,70,0.00,,,0.00,,2013-06-13 13:11:00,
2013-06-13 08:22:00,74.0,64.0,29.80,West,271,4.0,13.0,70,0.00,,,0.00,,2013-06-13 13:22:00,
2013-06-13 08:32:00,72.0,63.0,29.81,WNW,298,6.0,16.0,73,0.00,,,0.00,,2013-06-13 13:32:00,
2013-06-13 08:43:00,72.0,63.0,29.81,WNW,298,6.0,16.0,73,0.00,,,0.00,,2013-06-13 13:43:00,
2013-06-13 08:53:00,73.0,64.0,29.82,NW,326,6.0,16.0,74,0.00,,,0.00,,2013-06-13 13:53:00,
2013-06-13 09:02:00,73.0,64.0,29.82,NW,326,6.0,16.0,74,0.00,,,0.00,,2013-06-13 14:02:00,
2013-06-13 09:11:00,73.0,64.0,29.82,NW,326,6.0,16.0,74,0.00,,,0.00,,2013-06-13 14:11:00,
2013-06-13 09:22:00,73.0,65.0,29.83,WNW,296,5.0,14.0,76,0.00,,,0.00,,2013-06-13 14:22:00,
2013-06-13 09:33:00,72.0,64.0,29.83,WNW,299,5.0,16.0,77,0.00,,,0.00,,2013-06-13 14:33:00,
2013-06-13 09:43:00,72.0,64.0,29.83,WNW,299,5.0,16.0,77,0.00,,,0.00,,2013-06-13 14:43:00,
2013-06-13 09:53:00,72.0,65.0,29.84,West,272,4.0,19.0,78,0.00,,,0.00,,2013-06-13 14:53:00,
2013-06-13 10:01:00,72.0,65.0,29.84,NW,319,5.0,13.0,80,0.00,,,0.00,,2013-06-13 15:01:00,
2013-06-13 10:12:00,72.0,65.0,29.84,NW,319,5.0,13.0,80,0.00,,,0.00,,2013-06-13 15:12:00,
2013-06-13 10:22:00,71.0,65.0,29.85,NW,319,6.0,14.0,80,0.00,,,0.00,,2013-06-13 15:22:00,
2013-06-13 10:33:00,71.0,66.0,29.86,NNW,336,2.0,11.0,83,0.00,,,0.00,,2013-06-13 15:33:00,
2013-06-13 10:43:00,71.0,66.0,29.86,NNW,336,2.0,11.0,83,0.00,,,0.00,,2013-06-13 15:43:00,
2013-06-13 10:53:00,73.0,67.0,29.87,West,273,4.0,14.0,82,0.00,,,0.00,,2013-06-13 15:53:00,
2013-06-13 11:02:00,74.0,66.0,29.87,NNW,331,6.0,13.0,77,0.00,,,0.00,,2013-06-13 16:02:00,
2013-06-13 11:12:00,74.0,66.0,29.87,NNW,331,6.0,13.0,77,0.00,,,0.00,,2013-06-13 16:12:00,
2013-06-13 11:22:00,73.0,66.0,29.88,NNW,335,10.0,14.0,78,0.00,,,0.00,,2013-06-13 16:22:00,
2013-06-13 11:33:00,73.0,66.0,29.89,NNW,338,12.0,19.0,79,0.00,,,0.00,,2013-06-13 16:33:00,
2013-06-13 11:43:00,73.0,66.0,29.89,NNW,338,12.0,19.0,79,0.00,,,0.00,,2013-06-13 16:43:00,
2013-06-13 11:53:00,73.0,65.0,29.90,North,5,11.0,22.0,77,0.00,,,0.00,,2013-06-13 16:53:00,
2013-06-13 12:02:00,73.0,65.0,29.91,NNW,333,14.0,22.0,76,0.00,,,0.00,,2013-06-13 17:02:00,
2013-06-13 12:11:00,73.0,65.0,29.91,NNW,333,14.0,22.0,76,0.00,,,0.00,,2013-06-13 17:11:00,
2013-06-13 12:24:00,72.0,64.0,29.91,NNW,336,12.0,18.0,77,0.00,,,0.00,,2013-06-13 17:24:00,
2013-06-13 12:33:00,72.0,64.0,29.91,NNW,333,11.0,19.0,77,0.00,,,0.00,,2013-06-13 17:33:00,
2013-06-13 12:43:00,72.0,64.0,29.91,NNW,333,11.0,19.0,77,0.00,,,0.00,,2013-06-13 17:43:00,
2013-06-13 12:53:00,72.0,65.0,29.91,NNW,348,9.0,14.0,79,0.00,,,0.00,,2013-06-13 17:53:00,
2013-06-13 13:02:00,75.0,67.0,29.91,North,5,10.0,14.0,76,0.00,,,0.00,,2013-06-13 18:02:00,
2013-06-13 13:11:00,75.0,67.0,29.91,North,5,10.0,14.0,76,0.00,,,0.00,,2013-06-13 18:11:00,
2013-06-13 13:22:00,75.0,65.0,29.91,NNE,17,11.0,20.0,71,0.00,,,0.00,,2013-06-13 18:22:00,
2013-06-13 13:33:00,77.0,66.0,29.91,NNW,338,11.0,20.0,68,0.00,,,0.00,,2013-06-13 18:33:00,
2013-06-13 13:43:00,77.0,66.0,29.91,NNW,338,11.0,20.0,68,0.00,,,0.00,,2013-06-13 18:43:00,
2013-06-13 13:52:00,78.0,66.0,29.91,North,355,13.0,20.0,67,0.00,,,0.00,,2013-06-13 18:52:00,
2013-06-13 14:01:00,78.0,63.0,29.91,NNE,22,10.0,18.0,60,0.00,,,0.00,,2013-06-13 19:01:00,
2013-06-13 14:11:00,78.0,63.0,29.91,NNE,22,10.0,18.0,60,0.00,,,0.00,,2013-06-13 19:11:00,
2013-06-13 14:22:00,79.0,64.0,29.91,NNW,348,9.0,16.0,60,0.00,,,0.00,,2013-06-13 19:22:00,
2013-06-13 14:33:00,80.0,64.0,29.91,NNW,329,11.0,23.0,58,0.00,,,0.00,,2013-06-13 19:33:00,
2013-06-13 14:43:00,80.0,64.0,29.91,NNW,329,11.0,23.0,58,0.00,,,0.00,,2013-06-13 19:43:00,
2013-06-13 14:53:00,80.0,64.0,29.91,NNE,26,9.0,15.0,58,0.00,,,0.00,,2013-06-13 19:53:00,
2013-06-13 15:01:00,81.0,63.0,29.91,NNE,23,9.0,18.0,54,0.00,,,0.00,,2013-06-13 20:01:00,
2013-06-13 15:11:00,81.0,63.0,29.91,NNE,23,9.0,18.0,54,0.00,,,0.00,,2013-06-13 20:11:00,
2013-06-13 15:22:00,81.0,62.0,29.91,NNE,12,11.0,20.0,53,0.00,,,0.00,,2013-06-13 20:22:00,
2013-06-13 15:33:00,82.0,61.0,29.92,NNW,333,10.0,18.0,49,0.00,,,0.00,,2013-06-13 20:33:00,
2013-06-13 15:44:00,82.0,61.0,29.92,NNW,333,10.0,18.0,49,0.00,,,0.00,,2013-06-13 20:44:00,
2013-06-13 15:53:00,82.0,60.0,29.92,NNE,14,10.0,20.0,48,0.00,,,0.00,,2013-06-13 20:53:00,
2013-06-13 16:02:00,82.0,57.0,29.92,North,349,11.0,18.0,43,0.00,,,0.00,,2013-06-13 21:02:00,
2013-06-13 16:11:00,82.0,57.0,29.92,North,349,11.0,18.0,43,0.00,,,0.00,,2013-06-13 21:11:00,
2013-06-13 16:22:00,82.0,58.0,29.92,NNW,340,12.0,18.0,44,0.00,,,0.00,,2013-06-13 21:22:00,
2013-06-13 16:34:00,82.0,58.0,29.92,NNE,13,11.0,21.0,44,0.00,,,0.00,,2013-06-13 21:34:00,
2013-06-13 16:43:00,82.0,58.0,29.92,NNE,13,11.0,21.0,44,0.00,,,0.00,,2013-06-13 21:43:00,
2013-06-13 16:52:00,82.0,58.0,29.92,NE,36,10.0,16.0,44,0.00,,,0.00,,2013-06-13 21:52:00,
2013-06-13 17:02:00,83.0,59.0,29.91,NE,34,11.0,15.0,44,0.00,,,0.00,,2013-06-13 22:02:00,
2013-06-13 17:11:00,83.0,59.0,29.91,NE,34,11.0,15.0,44,0.00,,,0.00,,2013-06-13 22:11:00,
2013-06-13 17:22:00,83.0,58.0,29.91,NNW,343,11.0,18.0,43,0.00,,,0.00,,2013-06-13 22:22:00,
2013-06-13 17:33:00,83.0,58.0,29.91,NNW,342,10.0,16.0,43,0.00,,,0.00,,2013-06-13 22:33:00,
2013-06-13 17:43:00,83.0,58.0,29.91,NNW,342,10.0,16.0,43,0.00,,,0.00,,2013-06-13 22:43:00,
2013-06-13 17:52:00,82.0,57.0,29.91,NNW,340,11.0,18.0,42,0.00,,,0.00,,2013-06-13 22:52:00,
2013-06-13 18:02:00,82.0,57.0,29.91,North,5,10.0,16.0,43,0.00,,,0.00,,2013-06-13 23:02:00,
2013-06-13 18:11:00,82.0,57.0,29.91,North,5,10.0,16.0,43,0.00,,,0.00,,2013-06-13 23:11:00,
2013-06-13 18:22:00,82.0,57.0,29.91,North,5,9.0,13.0,43,0.00,,,0.00,,2013-06-13 23:22:00,
2013-06-13 18:32:00,82.0,58.0,29.91,North,355,10.0,16.0,44,0.00,,,0.00,,2013-06-13 23:32:00,
2013-06-13 18:43:00,82.0,58.0,29.91,North,355,10.0,16.0,44,0.00,,,0.00,,2013-06-13 23:43:00,
2013-06-13 18:52:00,81.0,56.0,29.92,NNE,15,9.0,14.0,43,0.00,,,0.00,,2013-06-13 23:52:00,
2013-06-13 19:01:00,81.0,59.0,29.93,North,355,8.0,12.0,47,0.00,,,0.00,,2013-06-14 00:01:00,
2013-06-13 19:12:00,81.0,59.0,29.93,North,355,8.0,12.0,47,0.00,,,0.00,,2013-06-14 00:12:00,
2013-06-13 19:22:00,80.0,58.0,29.93,NNE,28,8.0,14.0,47,0.00,,,0.00,,2013-06-14 00:22:00,
2013-06-13 19:34:00,79.0,57.0,29.94,North,5,10.0,16.0,47,0.00,,,0.00,,2013-06-14 00:34:00,
2013-06-13 19:43:00,79.0,57.0,29.94,North,5,10.0,16.0,47,0.00,,,0.00,,2013-06-14 00:43:00,
2013-06-13 19:53:00,78.0,56.0,29.95,NNE,19,8.0,15.0,47,0.00,,,0.00,,2013-06-14 00:53:00,
2013-06-13 20:01:00,77.0,55.0,29.95,North,5,8.0,13.0,46,0.00,,,0.00,,2013-06-14 01:01:00,
2013-06-13 20:11:00,77.0,55.0,29.95,North,5,8.0,13.0,46,0.00,,,0.00,,2013-06-14 01:11:00,
2013-06-13 20:22:00,76.0,55.0,29.96,NE,44,6.0,10.0,48,0.00,,,0.00,,2013-06-14 01:22:00,
2013-06-13 20:32:00,74.0,55.0,29.96,NNE,26,4.0,6.0,52,0.00,,,0.00,,2013-06-14 01:32:00,
2013-06-13 20:43:00,74.0,55.0,29.96,NNE,26,4.0,6.0,52,0.00,,,0.00,,2013-06-14 01:43:00,
2013-06-13 20:52:00,73.0,55.0,29.96,NNE,14,4.0,7.0,54,0.00,,,0.00,,2013-06-14 01:52:00,
2013-06-13 21:02:00,72.0,55.0,29.96,NNE,24,3.0,7.0,56,0.00,,,0.00,,2013-06-14 02:02:00,
2013-06-13 21:11:00,72.0,55.0,29.96,NNE,24,3.0,7.0,56,0.00,,,0.00,,2013-06-14 02:11:00,
2013-06-13 21:22:00,72.0,54.0,29.96,NE,38,5.0,8.0,54,0.00,,,0.00,,2013-06-14 02:22:00,
2013-06-13 21:32:00,72.0,56.0,29.97,NE,38,1.0,7.0,57,0.00,,,0.00,,2013-06-14 02:32:00,
2013-06-13 21:43:00,72.0,56.0,29.97,NE,38,1.0,7.0,57,0.00,,,0.00,,2013-06-14 02:43:00,
2013-06-13 21:53:00,70.0,55.0,29.98,NE,38,0.0,2.0,60,0.00,,,0.00,,2013-06-14 02:53:00,
2013-06-13 22:02:00,69.0,56.0,29.97,NE,38,1.0,2.0,63,0.00,,,0.00,,2013-06-14 03:02:00,
2013-06-13 22:12:00,69.0,56.0,29.97,NE,38,1.0,2.0,63,0.00,,,0.00,,2013-06-14 03:12:00,
2013-06-13 22:22:00,68.0,55.0,29.97,NE,38,0.0,2.0,63,0.00,,,0.00,,2013-06-14 03:22:00,
2013-06-13 22:34:00,68.0,56.0,29.97,NE,38,0.0,1.0,65,0.00,,,0.00,,2013-06-14 03:34:00,
2013-06-13 22:43:00,68.0,56.0,29.97,NE,38,0.0,1.0,65,0.00,,,0.00,,2013-06-14 03:43:00,
2013-06-13 22:53:00,67.0,55.0,29.97,NE,38,0.0,2.0,65,0.00,,,0.00,,2013-06-14 03:53:00,
2013-06-13 23:01:00,67.0,55.0,29.97,NE,38,0.0,0.0,66,0.00,,,0.00,,2013-06-14 04:01:00,
2013-06-13 23:12:00,67.0,55.0,29.97,NE,38,0.0,0.0,66,0.00,,,0.00,,2013-06-14 04:12:00,
2013-06-13 23:22:00,67.0,55.0,29.97,NE,38,0.0,0.0,66,0.00,,,0.00,,2013-06-14 04:22:00,
2013-06-13 23:33:00,66.0,55.0,29.97,NE,38,1.0,2.0,67,0.00,,,0.00,,2013-06-14 04:33:00,
2013-06-13 23:43:00,66.0,55.0,29.97,NE,38,1.0,2.0,67,0.00,,,0.00,,2013-06-14 04:43:00,
2013-06-13 23:53:00,66.0,55.0,29.97,NE,38,0.0,1.0,67,0.00,,,0.00,,2013-06-14 04:53:00,